CW3094 Weather Reports


time (UTC)temp
F
wind
direction
speed
knots
gust
knots
rain 1hr
in
rain 24hr
in
rain mn
in
humidity
%
barometer
mb
20260505093902 49 246 2.6 4.3 0.00 0.00 0.00 88 1008.8
20260505093402 49 246 3.5 5.2 0.00 0.00 0.00 88 1008.9
20260505092902 49 247 2.6 4.3 0.00 0.00 0.00 87 1008.9
20260505092402 49 240 1.7 2.6 0.00 0.00 0.00 87 1008.8
20260505091901 49 259 1.7 2.6 0.00 0.00 0.00 86 1008.7
20260505091401 49 247 1.7 2.6 0.00 0.00 0.00 86 1008.8
20260505090902 49 233 1.7 2.6 0.00 0.00 0.00 86 1008.8
20260505090402 49 273 1.7 2.6 0.00 0.00 0.00 85 1008.7
20260505085902 49 251 1.7 2.6 0.00 0.00 0.00 85 1008.7
20260505085402 50 262 1.7 4.3 0.00 0.00 0.00 84 1008.8
20260505084902 50 262 1.7 2.6 0.00 0.00 0.00 84 1008.8
20260505084401 50 278 1.7 2.6 0.00 0.00 0.00 84 1008.7
20260505083902 50 283 1.7 2.6 0.00 0.00 0.00 84 1008.7
20260505083402 50 269 1.7 2.6 0.00 0.00 0.00 84 1008.8
20260505082905 50 293 1.7 4.3 0.00 0.00 0.00 84 1008.8
20260505082402 50 268 2.6 2.6 0.00 0.00 0.00 83 1008.7
20260505081902 50 265 2.6 4.3 0.00 0.00 0.00 83 1008.8
20260505081402 50 264 1.7 4.3 0.00 0.00 0.00 82 1008.8
20260505080901 50 258 1.7 1.7 0.00 0.00 0.00 82 1008.9
20260505075902 51 278 1.7 2.6 0.00 0.00 0.00 82 1008.8
20260505075401 51 255 1.7 4.3 0.00 0.00 0.00 82 1008.9
20260505074902 50 278 2.6 5.2 0.00 0.00 0.00 82 1008.8
20260505074402 50 263 1.7 2.6 0.00 0.00 0.00 82 1008.8
20260505073901 50 253 1.7 4.3 0.00 0.00 0.00 83 1008.9
20260505073402 50 245 1.7 4.3 0.00 0.00 0.00 83 1008.8
20260505072902 50 240 2.6 5.2 0.00 0.00 0.00 83 1008.8
20260505072402 50 233 2.6 5.2 0.00 0.00 0.00 83 1008.8
20260505071902 50 267 1.7 4.3 0.00 0.00 0.00 83 1008.8
20260505071402 50 258 2.6 5.2 0.00 0.00 0.00 83 1008.7
20260505070902 50 261 2.6 4.3 0.00 0.00 0.00 83 1008.8
20260505065902 49 245 2.6 4.3 0.00 0.00 0.00 83 1008.8
20260505065402 49 247 1.7 2.6 0.00 0.00 0.00 84 1008.8
20260505064901 49 262 1.7 2.6 0.00 0.00 0.00 84 1008.8
20260505064401 50 251 2.6 4.3 0.00 0.00 0.00 83 1008.8
20260505063901 50 247 1.7 2.6 0.00 0.00 0.00 83 1008.8
20260505062902 50 247 1.7 2.6 0.00 0.00 0.00 83 1008.9
20260505062402 50 248 2.6 4.3 0.00 0.00 0.00 83 1008.9
20260505061901 50 228 1.7 4.3 0.00 0.00 0.00 83 1008.9
20260505061402 50 236 1.7 2.6 0.00 0.00 0.00 83 1008.9
20260505060901 50 247 1.7 2.6 0.00 0.00 0.00 83 1008.9
20260505055402 50 239 2.6 4.3 0.00 0.00 0.00 82 1009.2
20260505054902 50 249 2.6 4.3 0.00 0.00 0.00 83 1009.2
20260505054402 50 246 2.6 4.3 0.00 0.00 0.00 82 1009.2
20260505053901 51 241 2.6 4.3 0.00 0.00 0.00 81 1009.2
20260505053401 51 251 2.6 2.6 0.00 0.00 0.00 81 1009.2
20260505052902 51 235 1.7 4.3 0.00 0.00 0.00 81 1009.2
20260505052402 51 238 2.6 4.3 0.00 0.00 0.00 81 1009.2
20260505051902 51 231 1.7 5.2 0.00 0.00 0.00 81 1009.3
20260505051402 51 257 2.6 5.2 0.00 0.00 0.00 81 1009.2
20260505050402 51 245 2.6 5.2 0.00 0.00 0.00 80 1009.4
20260505041402 52 256 4.3 5.2 0.00 0.00 0.00 78 1009.5
20260505040903 52 258 2.6 5.2 0.00 0.00 0.00 78 1009.5
20260505040402 52 257 2.6 5.2 0.00 0.00 0.00 78 1009.5
20260505035902 52 258 2.6 4.3 0.00 0.00 0.00 77 1009.5
20260505035402 52 268 2.6 4.3 0.00 0.00 0.00 77 1009.6
20260505034902 52 258 2.6 5.2 0.00 0.00 0.00 76 1009.5
20260505034401 53 261 2.6 7.0 0.00 0.00 0.00 76 1009.5
20260505033905 53 260 3.5 6.1 0.00 0.00 0.00 76 1009.4
20260505033402 53 260 4.3 7.8 0.00 0.00 0.00 76 1009.4
20260505032902 53 273 3.5 5.2 0.00 0.00 0.00 76 1009.5
20260505031402 53 271 4.3 6.1 0.00 0.00 0.00 74 1009.5
20260505030902 53 258 4.3 5.2 0.00 0.00 0.00 74 1009.4
20260505030402 53 267 4.3 6.1 0.00 0.00 0.00 73 1009.4
20260505025902 54 277 3.5 6.1 0.00 0.00 0.00 73 1009.4
20260505025402 54 259 4.3 6.1 0.00 0.00 0.00 72 1009.4
20260505024903 54 258 4.3 7.0 0.00 0.00 0.00 71 1009.3
20260505024402 54 264 4.3 8.7 0.00 0.00 0.00 71 1009.3
20260505023902 54 273 5.2 11.3 0.00 0.00 0.00 70 1009.3
20260505023402 54 252 4.3 7.0 0.00 0.00 0.00 70 1009.4
20260505022902 54 249 5.2 7.0 0.00 0.00 0.00 69 1009.4
20260505022402 54 258 4.3 6.1 0.00 0.00 0.00 69 1009.5
20260505021402 55 246 4.3 7.0 0.00 0.00 0.00 68 1009.5
20260505020902 55 268 4.3 6.1 0.00 0.00 0.00 67 1009.4
20260505020402 55 277 4.3 6.1 0.00 0.00 0.00 67 1009.4
20260505015902 55 262 4.3 7.8 0.00 0.00 0.00 66 1009.4
20260505015402 55 255 4.3 6.1 0.00 0.00 0.00 65 1009.3
20260505014903 55 257 4.3 6.1 0.00 0.00 0.00 65 1009.3
20260505014402 55 271 4.3 7.0 0.00 0.00 0.00 65 1009.3
20260505013402 56 282 4.3 8.7 0.00 0.00 0.00 64 1009.2
20260505012902 56 260 4.3 7.8 0.00 0.00 0.00 63 1009.2
20260505011902 56 255 5.2 7.8 0.00 0.00 0.00 62 1009.1
20260505011402 57 252 4.3 7.8 0.00 0.00 0.00 61 1009.0
20260505010902 57 247 4.3 7.0 0.00 0.00 0.00 61 1008.9
20260505010402 57 251 4.3 7.8 0.00 0.00 0.00 60 1008.8
20260505005902 57 255 4.3 7.8 0.00 0.00 0.00 60 1008.8
20260505005402 57 250 4.3 6.1 0.00 0.00 0.00 60 1008.7
20260505004902 58 249 4.3 7.0 0.00 0.00 0.00 59 1008.6
20260505004402 58 248 4.3 7.8 0.00 0.00 0.00 59 1008.6
20260505003402 58 258 4.3 6.1 0.00 0.00 0.00 57 1008.4
20260505002402 59 256 2.6 7.0 0.00 0.00 0.00 57 1008.3
20260505001403 59 240 4.3 6.1 0.00 0.00 0.00 56 1008.1
20260505000902 59 243 4.3 7.0 0.00 0.00 0.00 56 1008.0
20260505000402 59 244 4.3 7.0 0.00 0.00 0.00 55 1007.9
20260504235902 60 253 4.3 10.4 0.00 0.00 0.00 55 1007.9
20260504235402 60 244 4.3 7.8 0.00 0.00 0.00 55 1007.7
20260504234902 60 257 4.3 6.1 0.00 0.00 0.00 54 1007.8
20260504234403 61 222 4.3 7.0 0.00 0.00 0.00 54 1007.6
20260504233902 61 234 4.3 7.8 0.00 0.00 0.00 53 1007.5
20260504233402 61 262 4.3 6.1 0.00 0.00 0.00 52 1007.4
20260504232403 62 243 3.5 8.7 0.00 0.00 0.00 51 1007.3
20260504231903 62 257 4.3 7.0 0.00 0.00 0.00 50 1007.2
20260504231402 63 226 5.2 7.8 0.00 0.00 0.00 49 1007.1
20260504230902 63 232 5.2 7.8 0.00 0.00 0.00 48 1006.9
20260504230402 64 238 6.1 8.7 0.00 0.00 0.00 48 1006.9
20260504225902 64 250 4.3 7.0 0.00 0.00 0.00 46 1006.9
20260504225402 65 240 3.5 7.8 0.00 0.00 0.00 45 1006.8
20260504224902 65 247 5.2 8.7 0.00 0.00 0.00 43 1006.8
20260504224402 66 225 4.3 11.3 0.00 0.00 0.00 38 1006.7
20260504223902 66 243 6.1 10.4 0.00 0.00 0.00 37 1006.7
20260504223402 66 244 4.3 8.7 0.00 0.00 0.00 37 1006.7
20260504222903 67 244 5.2 8.7 0.00 0.00 0.00 37 1006.7
20260504222402 67 249 2.6 8.7 0.00 0.00 0.00 37 1006.8
20260504221903 67 225 4.3 7.8 0.00 0.00 0.00 36 1006.8
20260504221403 67 244 4.3 7.0 0.00 0.00 0.00 37 1006.8
20260504220902 68 242 6.1 7.8 0.00 0.00 0.00 35 1006.8
20260504220403 68 262 4.3 7.8 0.00 0.00 0.00 36 1006.9
20260504215903 68 258 5.2 8.7 0.00 0.00 0.00 35 1006.9
20260504215403 69 240 2.6 7.8 0.00 0.00 0.00 34 1007.0
20260504214903 69 272 6.1 11.3 0.00 0.00 0.00 34 1007.0
20260504213902 69 253 5.2 7.8 0.00 0.00 0.00 35 1007.0
20260504213402 69 219 4.3 7.8 0.00 0.00 0.00 36 1007.1
20260504212902 68 272 5.2 7.8 0.00 0.00 0.00 35 1007.1
20260504212402 68 279 6.1 12.2 0.00 0.00 0.00 35 1007.1
20260504211902 68 267 5.2 10.4 0.00 0.00 0.00 34 1007.1
20260504211402 69 299 4.3 10.4 0.00 0.00 0.00 36 1007.2
20260504210902 69 280 5.2 12.2 0.00 0.00 0.00 35 1007.2
20260504205903 69 272 5.2 12.2 0.00 0.00 0.00 35 1007.2
20260504205403 69 302 5.2 11.3 0.00 0.00 0.00 35 1007.2
20260504204903 69 286 7.0 11.3 0.00 0.00 0.00 36 1007.2
20260504204402 68 232 4.3 7.8 0.00 0.00 0.00 37 1007.2
20260504203902 69 266 5.2 10.4 0.00 0.00 0.00 38 1007.4
20260504203403 69 236 7.0 10.4 0.00 0.00 0.00 35 1007.3
20260504202902 69 248 6.1 10.4 0.00 0.00 0.00 36 1007.3
20260504202402 69 270 6.1 8.7 0.00 0.00 0.00 36 1007.4
20260504201902 69 247 4.3 7.8 0.00 0.00 0.00 36 1007.4
20260504201402 69 256 4.3 8.7 0.00 0.00 0.00 35 1007.6
20260504200903 68 266 7.0 13.0 0.00 0.00 0.00 36 1007.6
20260504200403 68 257 7.8 14.8 0.00 0.00 0.00 36 1007.6
20260504195902 69 255 7.0 17.4 0.00 0.00 0.00 35 1007.8
20260504195402 69 275 7.8 11.3 0.00 0.00 0.00 33 1007.8
20260504194902 69 259 6.1 13.9 0.00 0.00 0.00 38 1007.8
20260504193907 68 289 7.8 13.0 0.00 0.00 0.00 34 1007.8
20260504193402 69 271 7.0 13.0 0.00 0.00 0.00 35 1008.0
20260504191902 68 280 7.8 17.4 0.00 0.00 0.00 35 1008.0
20260504191402 68 287 6.1 12.2 0.00 0.00 0.00 37 1008.0
20260504190402 68 267 7.0 20.9 0.00 0.00 0.00 38 1008.1
20260504185903 68 267 6.1 12.2 0.00 0.00 0.00 38 1008.2
20260504185403 68 268 7.8 11.3 0.00 0.00 0.00 41 1008.2
20260504184902 68 232 5.2 10.4 0.00 0.00 0.00 40 1008.3
20260504184402 68 259 6.1 11.3 0.00 0.00 0.00 40 1008.4
20260504183903 67 295 6.1 11.3 0.00 0.00 0.00 37 1008.4
20260504183403 67 274 7.8 20.9 0.00 0.00 0.00 38 1008.5
20260504182902 67 251 7.0 17.4 0.00 0.00 0.00 38 1008.5
20260504182402 67 243 7.0 18.2 0.00 0.00 0.00 38 1008.6
20260504181903 67 263 7.8 14.8 0.00 0.00 0.00 38 1008.6
20260504180902 67 257 6.1 12.2 0.00 0.00 0.00 39 1008.7
20260504180402 67 291 6.1 11.3 0.00 0.00 0.00 39 1008.8
20260504175902 66 246 7.8 12.2 0.00 0.00 0.00 38 1008.8
20260504175403 66 265 6.1 12.2 0.00 0.00 0.00 38 1008.9
20260504173902 67 275 7.8 13.0 0.00 0.00 0.00 42 1009.0
20260504173402 67 254 6.1 11.3 0.00 0.00 0.00 38 1009.0
20260504172902 67 247 7.0 12.2 0.00 0.00 0.00 38 1009.0
20260504171902 66 283 7.0 12.2 0.00 0.00 0.00 35 1009.1
20260504171403 66 262 7.0 14.8 0.00 0.00 0.00 40 1009.1
20260504170903 66 279 6.1 15.6 0.00 0.00 0.00 41 1009.2
20260504170402 66 263 6.1 15.6 0.00 0.00 0.00 40 1009.3
20260504160403 64 262 7.8 13.0 0.00 0.00 0.00 39 1009.8
20260504150902 61 272 7.8 14.8 0.00 0.00 0.00 40 1010.4
20260504150402 62 261 7.8 17.4 0.00 0.00 0.00 41 1010.5
20260504140903 60 270 6.1 7.8 0.00 0.00 0.00 44 1010.9
20260504130405 56 299 6.1 13.0 0.00 0.00 0.00 48 1011.4
20260504110403 44 269 4.3 5.2 0.00 0.00 0.00 69 1011.9
20260504100402 41 262 4.3 6.1 0.00 0.00 0.00 75 1011.4